Погода в Намборе

Австралия     26°37′39″S   152°57′36″E
темп.,
°C
ветер,
м/с
пор.,
м/с
влажн.,
%
обл.,
%
осадки,
мм/ч
давл.,
гПа
погр.,
м
16 июня, ср
ср1601:00+13з11964 0.0 101917
04:00+12з11960 0.0 101823
07:00+12з11930 0.0 101921
10:00+23юв01440 0.0 1019361
13:00+25всв22364 0.0 10161202
16:00+20св2561100 0.0 1016262
19:00+16ссз138894 0.0 101776
22:00+17сз31283100 0.3 1018531
17 июня, чт
чт1701:00+17ссз31181100 0.1 1017592
04:00+16сз3109994 1.3 1016407
07:00+14зсз259953 0.3 1017140
10:00+20зсз366915 0.3 1016951
13:00+24з373246 0.0 10131992
16:00+21зюз26395 0.0 1013289
19:00+13з235855 0.0 101643
22:00+10з225950 0.0 101633
18 июня, пт
пт1801:00+9з215883 0.0 101529
04:00+8зсз216468 0.0 101528
07:00+8зсз22683 0.0 101639
10:00+18зюз38401 0.0 10151306
13:00+20зюз48334 0.0 10121968
16:00+19з294217 0.0 10122090
19:00+12зсз216174 0.0 101428
22:00+10з2365100 0.0 101448
19 июня, сб
сб1901:00+9зсз236785 0.0 101471
04:00+11зюз31256100 0.0 1014833
07:00+10зюз3136048 0.0 1015781
10:00+15зюз4124818 0.0 1014800
13:00+18юз47362 0.0 10131413
16:00+17юз28459 0.0 10131441
19:00+11з266848 0.0 1016124
22:00+13зюз3106225 0.0 1016346
20 июня, вс
вс2001:00+9зюз24781 0.0 101776
04:00+9зюз24800 0.0 101767
07:00+8зюз23800 0.0 102060
10:00+17ю34470 0.0 1020970
13:00+19ююв34391 0.0 10181736
16:00+18ююв25492 0.0 1019618
19:00+11юз23750 0.0 102166
22:00+9зюз23770 0.0 102366